Time,TemperatureF,DewpointF,PressureIn,WindDirection,WindDirectionDegrees,WindSpeedMPH,WindSpeedGustMPH,Humidity,HourlyPrecipIn,Conditions,Clouds,dailyrainin,SoftwareType,DateUTC
2013-02-08 00:01:00,54.8,46.7,30.08,North,351,11.0,12.0,74,0.00,,,0.00,Wunderground v.1.15,2013-02-08 06:01:00,
2013-02-08 00:04:00,54.6,46.5,30.08,NNE,12,9.0,12.0,74,0.00,,,0.00,Wunderground v.1.15,2013-02-08 06:04:00,
2013-02-08 00:06:00,54.6,46.1,30.08,NNW,328,9.0,12.0,73,0.00,,,0.00,Wunderground v.1.15,2013-02-08 06:06:00,
2013-02-08 00:07:00,54.5,46.0,30.08,NW,325,9.0,12.0,73,0.00,,,0.00,Wunderground v.1.15,2013-02-08 06:07:00,
2013-02-08 00:09:00,54.4,45.9,30.08,North,355,9.0,16.0,73,0.00,,,0.00,Wunderground v.1.15,2013-02-08 06:09:00,
2013-02-08 00:11:00,54.2,45.7,30.08,North,5,9.0,9.0,73,0.00,,,0.00,Wunderground v.1.15,2013-02-08 06:11:00,
2013-02-08 00:12:00,54.2,45.7,30.08,NW,319,9.0,11.0,73,0.00,,,0.00,Wunderground v.1.15,2013-02-08 06:12:00,
2013-02-08 00:14:00,54.1,45.6,30.08,NNE,13,10.0,11.0,73,0.00,,,0.00,Wunderground v.1.15,2013-02-08 06:14:00,
2013-02-08 00:16:00,53.9,45.1,30.09,NW,311,9.0,11.0,72,0.00,,,0.00,Wunderground v.1.15,2013-02-08 06:16:00,
2013-02-08 00:17:00,53.7,44.9,30.09,NNW,346,9.0,11.0,72,0.00,,,0.00,Wunderground v.1.15,2013-02-08 06:17:00,
2013-02-08 00:19:00,53.6,44.8,30.09,NNW,336,9.0,11.0,72,0.00,,,0.00,Wunderground v.1.15,2013-02-08 06:19:00,
2013-02-08 00:23:00,53.3,44.9,30.09,NW,322,10.0,10.0,73,0.00,,,0.00,Wunderground v.1.15,2013-02-08 06:23:00,
2013-02-08 00:24:00,53.2,44.8,30.09,NNW,340,9.0,10.0,73,0.00,,,0.00,Wunderground v.1.15,2013-02-08 06:24:00,
2013-02-08 00:25:00,53.2,44.8,30.09,NNW,333,9.0,10.0,73,0.00,,,0.00,Wunderground v.1.15,2013-02-08 06:25:00,
2013-02-08 00:28:00,53.0,44.6,30.09,NNE,19,9.0,14.0,73,0.00,,,0.00,Wunderground v.1.15,2013-02-08 06:28:00,
2013-02-08 00:31:00,52.8,44.4,30.09,NNE,19,9.0,16.0,73,0.00,,,0.00,Wunderground v.1.15,2013-02-08 06:31:00,
2013-02-08 00:32:00,52.7,44.3,30.09,NNW,348,9.0,16.0,73,0.00,,,0.00,Wunderground v.1.15,2013-02-08 06:32:00,
2013-02-08 00:37:00,52.5,44.1,30.09,NNW,343,8.0,16.0,73,0.00,,,0.00,Wunderground v.1.15,2013-02-08 06:37:00,
2013-02-08 00:38:00,52.5,44.0,30.10,North,5,7.0,18.0,72,0.00,,,0.00,weatherlink.com 1.10,2013-02-08 06:38:00,
2013-02-08 00:43:00,52.3,43.5,30.10,NNW,334,8.0,12.0,72,0.00,,,0.00,Wunderground v.1.15,2013-02-08 06:43:00,
2013-02-08 00:44:00,52.2,43.4,30.10,North,5,8.0,12.0,72,0.00,,,0.00,Wunderground v.1.15,2013-02-08 06:44:00,
2013-02-08 00:49:00,52.1,43.3,30.10,NNW,331,8.0,12.0,72,0.00,,,0.00,Wunderground v.1.15,2013-02-08 06:49:00,
2013-02-08 00:50:00,52.1,43.3,30.10,NNW,342,8.0,8.0,72,0.00,,,0.00,Wunderground v.1.15,2013-02-08 06:50:00,
2013-02-08 00:51:00,52.1,43.3,30.10,NE,44,8.0,8.0,72,0.00,,,0.00,Wunderground v.1.15,2013-02-08 06:51:00,
2013-02-08 00:53:00,52.0,43.0,30.10,North,360,6.0,18.0,72,0.00,,,0.00,weatherlink.com 1.10,2013-02-08 06:53:00,
2013-02-08 00:55:00,51.9,43.5,30.10,North,355,9.0,27.0,73,0.00,,,0.00,Wunderground v.1.15,2013-02-08 06:55:00,
2013-02-08 00:57:00,51.9,43.5,30.10,NNE,30,9.0,27.0,73,0.00,,,0.00,Wunderground v.1.15,2013-02-08 06:57:00,
2013-02-08 00:58:00,51.9,43.5,30.10,NNW,346,9.0,27.0,73,0.00,,,0.00,Wunderground v.1.15,2013-02-08 06:58:00,
2013-02-08 01:00:00,51.8,43.4,30.10,North,355,8.0,8.0,73,0.00,,,0.00,Wunderground v.1.15,2013-02-08 07:00:00,
2013-02-08 01:01:00,51.8,43.4,30.10,North,5,8.0,8.0,73,0.00,,,0.00,Wunderground v.1.15,2013-02-08 07:01:00,
2013-02-08 01:03:00,51.8,43.4,30.10,NNW,338,8.0,8.0,73,0.00,,,0.00,Wunderground v.1.15,2013-02-08 07:03:00,
2013-02-08 01:05:00,51.7,43.7,30.11,NNW,337,7.0,9.0,74,0.00,,,0.00,Wunderground v.1.15,2013-02-08 07:05:00,
2013-02-08 01:07:00,51.7,43.7,30.11,North,9,7.0,9.0,74,0.00,,,0.00,Wunderground v.1.15,2013-02-08 07:07:00,
2013-02-08 01:11:00,51.6,43.9,30.11,North,355,6.0,6.0,75,0.00,,,0.00,Wunderground v.1.15,2013-02-08 07:11:00,
2013-02-08 01:15:00,51.6,44.3,30.11,NW,307,7.0,11.0,76,0.00,,,0.00,Wunderground v.1.15,2013-02-08 07:15:00,
2013-02-08 01:16:00,51.6,44.3,30.11,WNW,302,7.0,11.0,76,0.00,,,0.00,Wunderground v.1.15,2013-02-08 07:16:00,
2013-02-08 01:20:00,51.5,44.2,30.11,NNW,340,6.0,6.0,76,0.00,,,0.00,Wunderground v.1.15,2013-02-08 07:20:00,
2013-02-08 01:22:00,51.5,44.5,30.11,North,9,6.0,8.0,77,0.00,,,0.00,Wunderground v.1.15,2013-02-08 07:22:00,
2013-02-08 01:23:00,51.4,44.4,30.11,NNW,331,6.0,8.0,77,0.00,,,0.00,Wunderground v.1.15,2013-02-08 07:23:00,
2013-02-08 01:27:00,51.3,44.3,30.11,North,355,6.0,10.0,77,0.00,,,0.00,Wunderground v.1.15,2013-02-08 07:27:00,
2013-02-08 01:28:00,51.3,44.3,30.11,NNW,338,6.0,10.0,77,0.00,,,0.00,Wunderground v.1.15,2013-02-08 07:28:00,
2013-02-08 01:29:00,51.2,43.9,30.11,NNW,327,6.0,6.0,76,0.00,,,0.00,Wunderground v.1.15,2013-02-08 07:29:00,
2013-02-08 01:30:00,51.2,44.2,30.11,North,355,6.0,11.0,77,0.00,,,0.00,Wunderground v.1.15,2013-02-08 07:30:00,
2013-02-08 01:34:00,51.2,43.9,30.11,NNW,332,7.0,11.0,76,0.00,,,0.00,Wunderground v.1.15,2013-02-08 07:34:00,
2013-02-08 01:35:00,51.2,44.2,30.11,NNW,335,7.0,11.0,77,0.00,,,0.00,Wunderground v.1.15,2013-02-08 07:35:00,
2013-02-08 01:36:00,51.2,43.9,30.11,NW,324,7.0,11.0,76,0.00,,,0.00,Wunderground v.1.15,2013-02-08 07:36:00,
2013-02-08 01:40:00,51.1,44.1,30.11,NW,321,7.0,7.0,77,0.00,,,0.00,Wunderground v.1.15,2013-02-08 07:40:00,
2013-02-08 01:42:00,51.0,44.0,30.11,NNW,338,7.0,7.0,77,0.00,,,0.00,Wunderground v.1.15,2013-02-08 07:42:00,
2013-02-08 01:46:00,50.9,43.9,30.11,NW,313,7.0,10.0,77,0.00,,,0.00,Wunderground v.1.15,2013-02-08 07:46:00,
2013-02-08 01:49:00,50.9,43.9,30.11,WNW,288,7.0,12.0,77,0.00,,,0.00,Wunderground v.1.15,2013-02-08 07:49:00,
2013-02-08 01:51:00,50.8,43.8,30.11,NNW,339,7.0,7.0,77,0.00,,,0.00,Wunderground v.1.15,2013-02-08 07:51:00,
2013-02-08 01:52:00,50.8,43.8,30.12,NW,314,7.0,7.0,77,0.00,,,0.00,Wunderground v.1.15,2013-02-08 07:52:00,
2013-02-08 01:53:00,50.7,43.8,30.11,NW,306,7.0,12.0,77,0.00,,,0.00,Wunderground v.1.15,2013-02-08 07:53:00,
2013-02-08 01:57:00,50.7,43.8,30.12,NNW,327,7.0,20.0,77,0.00,,,0.00,Wunderground v.1.15,2013-02-08 07:57:00,
2013-02-08 01:58:00,50.6,43.7,30.12,North,355,7.0,20.0,77,0.00,,,0.00,Wunderground v.1.15,2013-02-08 07:58:00,
2013-02-08 01:59:00,50.6,43.7,30.12,NNW,346,7.0,20.0,77,0.00,,,0.00,Wunderground v.1.15,2013-02-08 07:59:00,
2013-02-08 02:00:00,50.6,43.7,30.12,NNW,333,7.0,7.0,77,0.00,,,0.00,Wunderground v.1.15,2013-02-08 08:00:00,
2013-02-08 02:04:00,50.5,43.6,30.12,NNW,342,7.0,14.0,77,0.00,,,0.00,Wunderground v.1.15,2013-02-08 08:04:00,
2013-02-08 02:05:00,50.5,43.6,30.12,NNE,28,7.0,14.0,77,0.00,,,0.00,Wunderground v.1.15,2013-02-08 08:05:00,
2013-02-08 02:07:00,50.5,43.6,30.12,NW,317,7.0,14.0,77,0.00,,,0.00,Wunderground v.1.15,2013-02-08 08:07:00,
2013-02-08 02:11:00,50.4,43.5,30.12,NW,320,8.0,8.0,77,0.00,,,0.00,Wunderground v.1.15,2013-02-08 08:11:00,
2013-02-08 02:13:00,50.3,43.4,30.12,North,355,8.0,8.0,77,0.00,,,0.00,Wunderground v.1.15,2013-02-08 08:13:00,
2013-02-08 02:18:00,50.2,43.3,30.12,NW,317,7.0,8.0,77,0.00,,,0.00,Wunderground v.1.15,2013-02-08 08:18:00,
2013-02-08 02:22:00,50.1,43.2,30.12,North,9,7.0,13.0,77,0.00,,,0.00,Wunderground v.1.15,2013-02-08 08:22:00,
2013-02-08 02:23:00,50.1,43.5,30.12,NNW,346,7.0,13.0,78,0.00,,,0.00,Wunderground v.1.15,2013-02-08 08:23:00,
2013-02-08 02:26:00,50.0,43.4,30.12,NNE,32,7.0,13.0,78,0.00,,,0.00,Wunderground v.1.15,2013-02-08 08:26:00,
2013-02-08 02:28:00,50.0,43.4,30.12,NNE,17,7.0,13.0,78,0.00,,,0.00,Wunderground v.1.15,2013-02-08 08:28:00,
2013-02-08 02:32:00,49.9,43.0,30.12,North,9,8.0,13.0,77,0.00,,,0.00,Wunderground v.1.15,2013-02-08 08:32:00,
2013-02-08 02:33:00,49.9,43.0,30.12,NNE,13,8.0,13.0,77,0.00,,,0.00,Wunderground v.1.15,2013-02-08 08:33:00,
2013-02-08 02:35:00,49.9,43.0,30.12,North,350,9.0,13.0,77,0.00,,,0.00,Wunderground v.1.15,2013-02-08 08:35:00,
2013-02-08 02:38:00,49.8,42.9,30.12,North,360,9.0,13.0,77,0.00,,,0.00,Wunderground v.1.15,2013-02-08 08:38:00,
2013-02-08 02:39:00,49.8,42.9,30.12,NNW,342,8.0,13.0,77,0.00,,,0.00,Wunderground v.1.15,2013-02-08 08:39:00,
2013-02-08 02:40:00,49.8,42.9,30.12,WNW,285,9.0,9.0,77,0.00,,,0.00,Wunderground v.1.15,2013-02-08 08:40:00,
2013-02-08 02:43:00,49.7,42.8,30.12,NNW,341,8.0,12.0,77,0.00,,,0.00,Wunderground v.1.15,2013-02-08 08:43:00,
2013-02-08 02:46:00,49.6,42.7,30.12,NNW,336,7.0,12.0,77,0.00,,,0.00,Wunderground v.1.15,2013-02-08 08:46:00,
2013-02-08 02:47:00,49.5,42.2,30.12,North,10,7.0,12.0,76,0.00,,,0.00,Wunderground v.1.15,2013-02-08 08:47:00,
2013-02-08 02:49:00,49.5,42.2,30.12,North,5,7.0,12.0,76,0.00,,,0.00,Wunderground v.1.15,2013-02-08 08:49:00,
2013-02-08 02:51:00,49.4,42.5,30.12,North,355,6.0,18.0,77,0.00,,,0.00,Wunderground v.1.15,2013-02-08 08:51:00,
2013-02-08 02:53:00,49.4,42.5,30.12,North,9,6.0,18.0,77,0.00,,,0.00,Wunderground v.1.15,2013-02-08 08:53:00,
2013-02-08 02:55:00,49.4,42.5,30.12,NNW,338,7.0,18.0,77,0.00,,,0.00,Wunderground v.1.15,2013-02-08 08:55:00,
2013-02-08 02:57:00,49.3,42.4,30.12,North,355,7.0,18.0,77,0.00,,,0.00,Wunderground v.1.15,2013-02-08 08:57:00,
2013-02-08 03:00:00,49.2,42.3,30.12,North,5,7.0,9.0,77,0.00,,,0.00,Wunderground v.1.15,2013-02-08 09:00:00,
2013-02-08 03:03:00,49.2,42.3,30.12,North,360,7.0,14.0,77,0.00,,,0.00,Wunderground v.1.15,2013-02-08 09:03:00,
2013-02-08 03:04:00,49.1,42.2,30.12,North,355,7.0,14.0,77,0.00,,,0.00,Wunderground v.1.15,2013-02-08 09:04:00,
2013-02-08 03:06:00,49.1,42.2,30.12,NNE,19,8.0,14.0,77,0.00,,,0.00,Wunderground v.1.15,2013-02-08 09:06:00,
2013-02-08 03:07:00,49.1,42.2,30.12,NE,38,8.0,14.0,77,0.00,,,0.00,Wunderground v.1.15,2013-02-08 09:07:00,
2013-02-08 03:11:00,49.0,42.1,30.12,NNW,340,8.0,11.0,77,0.00,,,0.00,Wunderground v.1.15,2013-02-08 09:11:00,
2013-02-08 03:13:00,48.9,41.7,30.12,North,5,9.0,11.0,76,0.00,,,0.00,Wunderground v.1.15,2013-02-08 09:13:00,
2013-02-08 03:16:00,48.8,41.6,30.12,NNE,26,8.0,11.0,76,0.00,,,0.00,Wunderground v.1.15,2013-02-08 09:16:00,
2013-02-08 03:19:00,48.7,41.8,30.13,NE,34,8.0,11.0,77,0.00,,,0.00,Wunderground v.1.15,2013-02-08 09:19:00,
2013-02-08 03:21:00,48.7,41.5,30.13,NE,34,7.0,10.0,76,0.00,,,0.00,Wunderground v.1.15,2013-02-08 09:21:00,
2013-02-08 03:22:00,48.7,41.5,30.13,NNE,28,7.0,10.0,76,0.00,,,0.00,Wunderground v.1.15,2013-02-08 09:22:00,
2013-02-08 03:24:00,48.6,41.4,30.13,NW,321,7.0,10.0,76,0.00,,,0.00,Wunderground v.1.15,2013-02-08 09:24:00,
2013-02-08 03:26:00,48.5,41.6,30.13,North,5,8.0,11.0,77,0.00,,,0.00,Wunderground v.1.15,2013-02-08 09:26:00,
2013-02-08 03:39:00,48.2,41.0,30.13,NNE,31,10.0,14.0,76,0.00,,,0.00,weatherlink.com 1.10,2013-02-08 09:39:00,
2013-02-08 03:53:00,47.8,41.0,30.13,NE,46,4.0,19.0,76,0.00,,,0.00,weatherlink.com 1.10,2013-02-08 09:53:00,
2013-02-08 04:08:00,47.4,41.0,30.13,North,11,8.0,14.0,77,0.00,,,0.00,weatherlink.com 1.10,2013-02-08 10:08:00,
2013-02-08 04:23:00,47.1,40.0,30.14,NNE,30,5.0,14.0,76,0.00,,,0.00,weatherlink.com 1.10,2013-02-08 10:23:00,
2013-02-08 04:38:00,46.8,40.0,30.15,NNE,31,10.0,19.0,76,0.00,,,0.00,weatherlink.com 1.10,2013-02-08 10:38:00,
2013-02-08 04:53:00,46.5,39.0,30.15,NNE,13,4.0,15.0,76,0.00,,,0.00,weatherlink.com 1.10,2013-02-08 10:53:00,
2013-02-08 05:08:00,46.3,39.0,30.15,NNW,346,8.0,14.0,76,0.00,,,0.00,weatherlink.com 1.10,2013-02-08 11:08:00,
2013-02-08 05:23:00,46.1,39.0,30.16,NNW,345,9.0,14.0,76,0.00,,,0.00,weatherlink.com 1.10,2013-02-08 11:23:00,
2013-02-08 05:38:00,45.7,39.0,30.17,North,9,4.0,14.0,77,0.00,,,0.00,weatherlink.com 1.10,2013-02-08 11:38:00,
2013-02-08 05:53:00,45.2,38.0,30.18,North,355,3.0,11.0,77,0.00,,,0.00,weatherlink.com 1.10,2013-02-08 11:53:00,
2013-02-08 06:08:00,44.8,38.0,30.19,NNE,32,10.0,12.0,77,0.00,,,0.00,weatherlink.com 1.10,2013-02-08 12:08:00,
2013-02-08 06:23:00,44.5,38.0,30.19,NE,34,5.0,12.0,78,0.00,,,0.00,weatherlink.com 1.10,2013-02-08 12:23:00,
2013-02-08 06:38:00,44.0,38.0,30.19,NNW,348,7.0,10.0,79,0.00,,,0.00,weatherlink.com 1.10,2013-02-08 12:38:00,
2013-02-08 06:54:00,43.4,37.0,30.20,North,5,4.0,10.0,79,0.00,,,0.00,weatherlink.com 1.10,2013-02-08 12:54:00,
2013-02-08 07:09:00,43.3,38.0,30.21,NNE,24,6.0,9.0,80,0.00,,,0.00,weatherlink.com 1.10,2013-02-08 13:09:00,
2013-02-08 07:24:00,42.9,37.0,30.22,North,360,4.0,10.0,81,0.00,,,0.00,weatherlink.com 1.10,2013-02-08 13:24:00,
2013-02-08 07:39:00,42.7,37.0,30.22,NNW,327,8.0,10.0,81,0.00,,,0.00,weatherlink.com 1.10,2013-02-08 13:39:00,
2013-02-08 07:54:00,42.6,37.0,30.23,NNW,344,6.0,11.0,81,0.00,,,0.00,weatherlink.com 1.10,2013-02-08 13:54:00,
2013-02-08 08:09:00,42.9,37.0,30.23,NNE,17,10.0,14.0,80,0.00,,,0.00,weatherlink.com 1.10,2013-02-08 14:09:00,
2013-02-08 08:24:00,43.3,37.0,30.23,NNE,22,13.0,13.0,79,0.00,,,0.00,weatherlink.com 1.10,2013-02-08 14:24:00,
2013-02-08 08:39:00,43.9,37.0,30.24,North,11,5.0,13.0,78,0.00,,,0.00,weatherlink.com 1.10,2013-02-08 14:39:00,
2013-02-08 08:54:00,44.8,38.0,30.24,NE,52,7.0,12.0,76,0.00,,,0.00,weatherlink.com 1.10,2013-02-08 14:54:00,
2013-02-08 09:09:00,45.6,38.0,30.24,NE,52,6.0,14.0,74,0.00,,,0.00,weatherlink.com 1.10,2013-02-08 15:09:00,
2013-02-08 09:24:00,46.5,38.0,30.25,NNE,26,6.0,12.0,73,0.00,,,0.00,weatherlink.com 1.10,2013-02-08 15:24:00,
2013-02-08 09:39:00,47.4,38.0,30.25,NNE,22,5.0,12.0,71,0.00,,,0.00,weatherlink.com 1.10,2013-02-08 15:39:00,
2013-02-08 09:54:00,48.4,38.0,30.26,NNE,19,9.0,14.0,68,0.00,,,0.00,weatherlink.com 1.10,2013-02-08 15:54:00,
2013-02-08 10:09:00,49.6,38.0,30.26,NE,44,6.0,14.0,65,0.00,,,0.00,weatherlink.com 1.10,2013-02-08 16:09:00,
2013-02-08 10:15:00,50.3,37.8,30.25,NE,51,6.0,18.0,62,0.00,,,0.00,Wunderground v.1.15,2013-02-08 16:15:00,
2013-02-08 10:17:00,50.4,37.9,30.25,NNE,13,6.0,18.0,62,0.00,,,0.00,Wunderground v.1.15,2013-02-08 16:17:00,
2013-02-08 10:21:00,50.7,38.1,30.25,NNE,26,7.0,18.0,62,0.00,,,0.00,Wunderground v.1.15,2013-02-08 16:21:00,
2013-02-08 10:23:00,51.2,37.8,30.26,North,355,6.0,18.0,60,0.00,,,0.00,Wunderground v.1.15,2013-02-08 16:23:00,
2013-02-08 10:24:00,51.4,38.0,30.26,NNE,19,6.0,18.0,60,0.00,,,0.00,Wunderground v.1.15,2013-02-08 16:24:00,
2013-02-08 10:27:00,51.9,38.0,30.26,ENE,71,6.0,18.0,59,0.00,,,0.00,Wunderground v.1.15,2013-02-08 16:27:00,
2013-02-08 10:29:00,52.0,37.2,30.26,North,360,6.0,18.0,57,0.00,,,0.00,Wunderground v.1.15,2013-02-08 16:29:00,
2013-02-08 10:30:00,52.1,37.3,30.25,NNE,25,6.0,18.0,57,0.00,,,0.00,Wunderground v.1.15,2013-02-08 16:30:00,
2013-02-08 10:31:00,52.0,37.2,30.26,North,5,7.0,18.0,57,0.00,,,0.00,Wunderground v.1.15,2013-02-08 16:31:00,
2013-02-08 10:35:00,52.3,37.5,30.25,NNE,22,7.0,18.0,57,0.00,,,0.00,Wunderground v.1.15,2013-02-08 16:35:00,
2013-02-08 10:37:00,52.5,37.2,30.26,North,5,6.0,18.0,56,0.00,,,0.00,Wunderground v.1.15,2013-02-08 16:37:00,
2013-02-08 10:39:00,52.7,37.4,30.25,NE,47,6.0,18.0,56,0.00,,,0.00,Wunderground v.1.15,2013-02-08 16:39:00,
2013-02-08 10:43:00,53.3,37.1,30.25,NNE,33,5.0,18.0,54,0.00,,,0.00,Wunderground v.1.15,2013-02-08 16:43:00,
2013-02-08 10:45:00,53.3,37.5,30.25,NE,49,5.0,18.0,55,0.00,,,0.00,Wunderground v.1.15,2013-02-08 16:45:00,
2013-02-08 10:49:00,53.4,37.6,30.25,NNE,21,6.0,18.0,55,0.00,,,0.00,Wunderground v.1.15,2013-02-08 16:49:00,
2013-02-08 10:51:00,53.6,35.9,30.25,NE,46,6.0,18.0,51,0.00,,,0.00,Wunderground v.1.15,2013-02-08 16:51:00,
2013-02-08 10:57:00,54.7,36.4,30.25,NE,56,6.0,18.0,50,0.00,,,0.00,Wunderground v.1.15,2013-02-08 16:57:00,
2013-02-08 10:58:00,54.8,36.0,30.25,NNE,15,6.0,18.0,49,0.00,,,0.00,Wunderground v.1.15,2013-02-08 16:58:00,
2013-02-08 11:04:00,54.8,35.5,30.24,NE,49,7.0,7.0,48,0.00,,,0.00,Wunderground v.1.15,2013-02-08 17:04:00,
2013-02-08 11:05:00,54.8,36.0,30.24,ENE,57,7.0,8.0,49,0.00,,,0.00,Wunderground v.1.15,2013-02-08 17:05:00,
2013-02-08 11:06:00,54.9,36.6,30.25,NE,39,7.0,8.0,50,0.00,,,0.00,Wunderground v.1.15,2013-02-08 17:06:00,
2013-02-08 11:08:00,55.3,37.5,30.25,NNE,13,7.0,8.0,51,0.00,,,0.00,Wunderground v.1.15,2013-02-08 17:08:00,
2013-02-08 11:10:00,55.5,37.1,30.25,NNE,29,6.0,6.0,50,0.00,,,0.00,Wunderground v.1.15,2013-02-08 17:10:00,
2013-02-08 11:11:00,55.8,37.9,30.25,NNE,19,5.0,6.0,51,0.00,,,0.00,Wunderground v.1.15,2013-02-08 17:11:00,
2013-02-08 11:12:00,56.0,38.1,30.25,ENE,61,5.0,8.0,51,0.00,,,0.00,Wunderground v.1.15,2013-02-08 17:12:00,
2013-02-08 11:14:00,56.1,36.7,30.25,NE,51,5.0,8.0,48,0.00,,,0.00,Wunderground v.1.15,2013-02-08 17:14:00,
2013-02-08 11:18:00,55.8,36.4,30.24,NNE,22,5.0,11.0,48,0.00,,,0.00,Wunderground v.1.15,2013-02-08 17:18:00,
2013-02-08 11:20:00,55.6,36.2,30.24,NE,47,6.0,6.0,48,0.00,,,0.00,Wunderground v.1.15,2013-02-08 17:20:00,
2013-02-08 11:21:00,55.6,36.7,30.23,NNE,19,6.0,6.0,49,0.00,,,0.00,Wunderground v.1.15,2013-02-08 17:21:00,
2013-02-08 11:22:00,55.8,36.9,30.23,NE,40,7.0,7.0,49,0.00,,,0.00,Wunderground v.1.15,2013-02-08 17:22:00,
2013-02-08 11:27:00,56.6,36.6,30.23,NE,36,6.0,7.0,47,0.00,,,0.00,Wunderground v.1.15,2013-02-08 17:27:00,
2013-02-08 11:29:00,56.7,35.6,30.23,NE,34,6.0,7.0,45,0.00,,,0.00,Wunderground v.1.15,2013-02-08 17:29:00,
2013-02-08 11:30:00,56.9,36.3,30.23,NE,44,6.0,6.0,46,0.00,,,0.00,Wunderground v.1.15,2013-02-08 17:30:00,
2013-02-08 11:32:00,57.0,35.9,30.23,East,82,6.0,8.0,45,0.00,,,0.00,Wunderground v.1.15,2013-02-08 17:32:00,
2013-02-08 11:35:00,57.2,35.5,30.23,NE,56,6.0,8.0,44,0.00,,,0.00,Wunderground v.1.15,2013-02-08 17:35:00,
2013-02-08 11:37:00,57.0,35.3,30.24,NE,38,6.0,11.0,44,0.00,,,0.00,Wunderground v.1.15,2013-02-08 17:37:00,
2013-02-08 11:38:00,57.0,35.3,30.24,NNE,28,6.0,11.0,44,0.00,,,0.00,Wunderground v.1.15,2013-02-08 17:38:00,
2013-02-08 11:41:00,57.0,35.3,30.24,NNE,26,7.0,9.0,44,0.00,,,0.00,Wunderground v.1.15,2013-02-08 17:41:00,
2013-02-08 11:43:00,57.4,35.6,30.23,NNE,31,7.0,9.0,44,0.00,,,0.00,Wunderground v.1.15,2013-02-08 17:43:00,
2013-02-08 11:46:00,58.3,35.9,30.23,ENE,57,7.0,9.0,43,0.00,,,0.00,Wunderground v.1.15,2013-02-08 17:46:00,
2013-02-08 11:47:00,58.6,36.2,30.23,NNE,16,6.0,11.0,43,0.00,,,0.00,Wunderground v.1.15,2013-02-08 17:47:00,
2013-02-08 11:48:00,58.5,35.5,30.23,NE,40,6.0,11.0,42,0.00,,,0.00,Wunderground v.1.15,2013-02-08 17:48:00,
2013-02-08 11:51:00,57.7,35.3,30.23,ENE,58,7.0,9.0,43,0.00,,,0.00,Wunderground v.1.15,2013-02-08 17:51:00,
2013-02-08 11:53:00,57.5,34.6,30.23,ENE,61,7.0,9.0,42,0.00,,,0.00,Wunderground v.1.15,2013-02-08 17:53:00,
2013-02-08 11:54:00,57.5,34.6,30.23,ENE,65,7.0,9.0,42,0.00,,,0.00,Wunderground v.1.15,2013-02-08 17:54:00,
2013-02-08 11:57:00,57.6,34.1,30.23,NNE,12,7.0,14.0,41,0.00,,,0.00,Wunderground v.1.15,2013-02-08 17:57:00,
2013-02-08 11:58:00,57.7,34.7,30.23,ENE,65,7.0,14.0,42,0.00,,,0.00,Wunderground v.1.15,2013-02-08 17:58:00,
2013-02-08 12:00:00,58.0,35.0,30.23,East,79,6.0,6.0,42,0.00,,,0.00,Wunderground v.1.15,2013-02-08 18:00:00,
2013-02-08 12:05:00,58.8,33.9,30.23,NNE,22,6.0,8.0,39,0.00,,,0.00,Wunderground v.1.15,2013-02-08 18:05:00,
2013-02-08 12:06:00,58.6,34.3,30.23,NE,40,6.0,8.0,40,0.00,,,0.00,Wunderground v.1.15,2013-02-08 18:06:00,
2013-02-08 12:10:00,58.3,35.3,30.23,ENE,62,5.0,5.0,42,0.00,,,0.00,Wunderground v.1.15,2013-02-08 18:10:00,
2013-02-08 12:11:00,58.4,34.8,30.24,NNE,32,5.0,6.0,41,0.00,,,0.00,Wunderground v.1.15,2013-02-08 18:11:00,
2013-02-08 12:13:00,58.6,35.0,30.24,ENE,76,6.0,6.0,41,0.00,,,0.00,Wunderground v.1.15,2013-02-08 18:13:00,
2013-02-08 12:17:00,59.2,34.9,30.23,ENE,59,5.0,9.0,40,0.00,,,0.00,Wunderground v.1.15,2013-02-08 18:17:00,
2013-02-08 12:18:00,59.3,35.0,30.23,East,84,5.0,9.0,40,0.00,,,0.00,Wunderground v.1.15,2013-02-08 18:18:00,
2013-02-08 12:23:00,60.2,34.5,30.23,ENE,59,4.0,8.0,38,0.00,,,0.00,Wunderground v.1.15,2013-02-08 18:23:00,
2013-02-08 12:25:00,60.0,35.0,30.23,NW,312,4.0,8.0,39,0.00,,,0.00,Wunderground v.1.15,2013-02-08 18:25:00,
2013-02-08 12:27:00,59.9,34.2,30.23,NNE,31,4.0,8.0,38,0.00,,,0.00,Wunderground v.1.15,2013-02-08 18:27:00,
2013-02-08 12:29:00,59.8,33.5,30.23,NNE,28,4.0,8.0,37,0.00,,,0.00,Wunderground v.1.15,2013-02-08 18:29:00,
2013-02-08 12:32:00,60.2,35.1,30.23,ENE,62,4.0,5.0,39,0.00,,,0.00,Wunderground v.1.15,2013-02-08 18:32:00,
2013-02-08 12:33:00,60.8,35.7,30.23,East,80,4.0,5.0,39,0.00,,,0.00,Wunderground v.1.15,2013-02-08 18:33:00,
2013-02-08 12:35:00,61.0,34.5,30.23,East,80,3.0,5.0,37,0.00,,,0.00,Wunderground v.1.15,2013-02-08 18:35:00,
2013-02-08 12:39:00,61.2,34.7,30.22,NNE,33,3.0,8.0,37,0.00,,,0.00,Wunderground v.1.15,2013-02-08 18:39:00,
2013-02-08 12:41:00,61.1,35.3,30.22,North,5,3.0,9.0,38,0.00,,,0.00,Wunderground v.1.15,2013-02-08 18:41:00,
2013-02-08 12:42:00,61.0,34.5,30.22,NE,46,4.0,9.0,37,0.00,,,0.00,Wunderground v.1.15,2013-02-08 18:42:00,
2013-02-08 12:45:00,60.8,34.3,30.22,NE,53,4.0,9.0,37,0.00,,,0.00,Wunderground v.1.15,2013-02-08 18:45:00,
2013-02-08 12:46:00,60.8,34.3,30.22,East,82,4.0,9.0,37,0.00,,,0.00,Wunderground v.1.15,2013-02-08 18:46:00,
2013-02-08 12:47:00,60.9,33.7,30.22,NE,52,4.0,9.0,36,0.00,,,0.00,Wunderground v.1.15,2013-02-08 18:47:00,
2013-02-08 12:49:00,61.0,34.5,30.22,ESE,115,4.0,9.0,37,0.00,,,0.00,Wunderground v.1.15,2013-02-08 18:49:00,
2013-02-08 12:53:00,60.9,34.4,30.21,NE,54,5.0,11.0,37,0.00,,,0.00,Wunderground v.1.15,2013-02-08 18:53:00,
2013-02-08 12:54:00,60.9,33.7,30.21,NE,51,5.0,11.0,36,0.00,,,0.00,Wunderground v.1.15,2013-02-08 18:54:00,
2013-02-08 12:57:00,60.8,33.0,30.21,NE,42,5.0,12.0,35,0.00,,,0.00,Wunderground v.1.15,2013-02-08 18:57:00,
2013-02-08 13:01:00,61.2,32.6,30.21,East,89,6.0,6.0,34,0.00,,,0.00,Wunderground v.1.15,2013-02-08 19:01:00,
2013-02-08 13:06:00,61.1,33.2,30.20,ENE,74,5.0,6.0,35,0.00,,,0.00,Wunderground v.1.15,2013-02-08 19:06:00,
2013-02-08 13:07:00,61.2,33.3,30.20,NNE,26,5.0,6.0,35,0.00,,,0.00,Wunderground v.1.15,2013-02-08 19:07:00,
2013-02-08 13:09:00,61.5,34.3,30.20,NNE,26,5.0,5.0,36,0.00,,,0.00,Wunderground v.1.15,2013-02-08 19:09:00,
2013-02-08 13:12:00,61.4,33.5,30.20,NE,55,5.0,7.0,35,0.00,,,0.00,Wunderground v.1.15,2013-02-08 19:12:00,
2013-02-08 13:14:00,61.0,33.1,30.20,NNE,13,5.0,7.0,35,0.00,,,0.00,Wunderground v.1.15,2013-02-08 19:14:00,
2013-02-08 13:15:00,61.2,33.3,30.20,NE,55,5.0,7.0,35,0.00,,,0.00,Wunderground v.1.15,2013-02-08 19:15:00,
2013-02-08 13:19:00,61.8,33.8,30.20,ENE,78,5.0,8.0,35,0.00,,,0.00,Wunderground v.1.15,2013-02-08 19:19:00,
2013-02-08 13:23:00,62.1,34.1,30.19,NNE,20,4.0,5.0,35,0.00,,,0.00,Wunderground v.1.15,2013-02-08 19:23:00,
2013-02-08 13:26:00,62.3,33.6,30.19,NE,40,4.0,10.0,34,0.00,,,0.00,Wunderground v.1.15,2013-02-08 19:26:00,
2013-02-08 13:27:00,62.3,33.6,30.19,ENE,61,4.0,10.0,34,0.00,,,0.00,Wunderground v.1.15,2013-02-08 19:27:00,
2013-02-08 13:29:00,62.0,33.3,30.19,NNE,32,4.0,10.0,34,0.00,,,0.00,Wunderground v.1.15,2013-02-08 19:29:00,
2013-02-08 13:31:00,61.7,32.3,30.19,NNE,24,5.0,7.0,33,0.00,,,0.00,Wunderground v.1.15,2013-02-08 19:31:00,
2013-02-08 13:33:00,61.2,31.8,30.19,North,5,6.0,12.0,33,0.00,,,0.00,Wunderground v.1.15,2013-02-08 19:33:00,
2013-02-08 13:35:00,60.9,33.0,30.19,ENE,58,7.0,12.0,35,0.00,,,0.00,Wunderground v.1.15,2013-02-08 19:35:00,
2013-02-08 13:36:00,61.1,32.5,30.19,NE,55,7.0,12.0,34,0.00,,,0.00,Wunderground v.1.15,2013-02-08 19:36:00,
2013-02-08 13:39:00,61.8,33.1,30.18,NE,53,7.0,12.0,34,0.00,,,0.00,Wunderground v.1.15,2013-02-08 19:39:00,
2013-02-08 13:40:00,61.9,32.5,30.19,NE,54,7.0,14.0,33,0.00,,,0.00,Wunderground v.1.15,2013-02-08 19:40:00,
2013-02-08 13:42:00,61.9,31.7,30.19,East,90,7.0,14.0,32,0.00,,,0.00,Wunderground v.1.15,2013-02-08 19:42:00,
2013-02-08 13:43:00,61.8,30.8,30.18,ENE,69,6.0,14.0,31,0.00,,,0.00,Wunderground v.1.15,2013-02-08 19:43:00,
2013-02-08 13:46:00,61.8,32.4,30.18,SE,138,6.0,14.0,33,0.00,,,0.00,Wunderground v.1.15,2013-02-08 19:46:00,
2013-02-08 13:48:00,62.2,33.5,30.18,ENE,64,5.0,14.0,34,0.00,,,0.00,Wunderground v.1.15,2013-02-08 19:48:00,
2013-02-08 13:50:00,62.2,33.5,30.18,NE,52,5.0,5.0,34,0.00,,,0.00,Wunderground v.1.15,2013-02-08 19:50:00,
2013-02-08 13:53:00,62.3,33.6,30.18,South,188,5.0,5.0,34,0.00,,,0.00,Wunderground v.1.15,2013-02-08 19:53:00,
2013-02-08 13:58:00,62.4,32.9,30.18,ENE,61,5.0,12.0,33,0.00,,,0.00,Wunderground v.1.15,2013-02-08 19:58:00,
2013-02-08 13:59:00,62.5,33.0,30.18,East,81,6.0,12.0,33,0.00,,,0.00,Wunderground v.1.15,2013-02-08 19:59:00,
2013-02-08 14:00:00,62.5,32.2,30.18,ENE,63,5.0,5.0,32,0.00,,,0.00,Wunderground v.1.15,2013-02-08 20:00:00,
2013-02-08 14:02:00,62.5,32.2,30.18,NNE,23,5.0,5.0,32,0.00,,,0.00,Wunderground v.1.15,2013-02-08 20:02:00,
2013-02-08 14:04:00,62.2,32.0,30.17,ENE,61,5.0,10.0,32,0.00,,,0.00,Wunderground v.1.15,2013-02-08 20:04:00,
2013-02-08 14:06:00,62.2,32.7,30.17,ENE,65,5.0,10.0,33,0.00,,,0.00,Wunderground v.1.15,2013-02-08 20:06:00,
2013-02-08 14:07:00,62.3,33.6,30.17,ENE,78,5.0,10.0,34,0.00,,,0.00,Wunderground v.1.15,2013-02-08 20:07:00,
2013-02-08 14:08:00,62.5,33.7,30.17,ENE,57,4.0,10.0,34,0.00,,,0.00,Wunderground v.1.15,2013-02-08 20:08:00,
2013-02-08 14:12:00,62.7,33.2,30.17,NE,56,5.0,5.0,33,0.00,,,0.00,Wunderground v.1.15,2013-02-08 20:12:00,
2013-02-08 14:14:00,62.7,33.2,30.17,North,355,4.0,5.0,33,0.00,,,0.00,Wunderground v.1.15,2013-02-08 20:14:00,
2013-02-08 14:16:00,62.7,32.4,30.17,ENE,65,5.0,7.0,32,0.00,,,0.00,Wunderground v.1.15,2013-02-08 20:16:00,
2013-02-08 14:17:00,62.7,32.4,30.17,ENE,65,5.0,7.0,32,0.00,,,0.00,Wunderground v.1.15,2013-02-08 20:17:00,
2013-02-08 14:22:00,62.6,33.1,30.17,East,84,5.0,5.0,33,0.00,,,0.00,Wunderground v.1.15,2013-02-08 20:22:00,
2013-02-08 14:23:00,62.6,32.3,30.17,ESE,106,4.0,5.0,32,0.00,,,0.00,Wunderground v.1.15,2013-02-08 20:23:00,
2013-02-08 14:24:00,62.7,33.9,30.17,NNW,345,4.0,5.0,34,0.00,,,0.00,Wunderground v.1.15,2013-02-08 20:24:00,
2013-02-08 14:25:00,62.9,33.3,30.17,ENE,71,4.0,8.0,33,0.00,,,0.00,Wunderground v.1.15,2013-02-08 20:25:00,
2013-02-08 14:30:00,63.6,33.2,30.17,ENE,57,4.0,7.0,32,0.00,,,0.00,Wunderground v.1.15,2013-02-08 20:30:00,
2013-02-08 14:32:00,63.4,32.2,30.17,East,90,4.0,7.0,31,0.00,,,0.00,Wunderground v.1.15,2013-02-08 20:32:00,
2013-02-08 14:34:00,63.2,32.8,30.17,NNE,28,5.0,7.0,32,0.00,,,0.00,Wunderground v.1.15,2013-02-08 20:34:00,
2013-02-08 14:38:00,63.2,32.8,30.17,ENE,67,4.0,7.0,32,0.00,,,0.00,Wunderground v.1.15,2013-02-08 20:38:00,
2013-02-08 14:40:00,63.2,31.2,30.17,NNE,32,5.0,5.0,30,0.00,,,0.00,Wunderground v.1.15,2013-02-08 20:40:00,
2013-02-08 14:41:00,63.3,31.3,30.17,East,85,4.0,5.0,30,0.00,,,0.00,Wunderground v.1.15,2013-02-08 20:41:00,
2013-02-08 14:46:00,63.0,33.4,30.16,ENE,70,4.0,5.0,33,0.00,,,0.00,Wunderground v.1.15,2013-02-08 20:46:00,
2013-02-08 14:47:00,63.0,33.4,30.16,NNE,32,4.0,5.0,33,0.00,,,0.00,Wunderground v.1.15,2013-02-08 20:47:00,
2013-02-08 14:49:00,63.1,33.5,30.16,NE,42,4.0,5.0,33,0.00,,,0.00,Wunderground v.1.15,2013-02-08 20:49:00,
2013-02-08 14:50:00,63.2,33.6,30.16,NNE,29,4.0,4.0,33,0.00,,,0.00,Wunderground v.1.15,2013-02-08 20:50:00,
2013-02-08 14:52:00,63.5,34.6,30.16,ESE,115,4.0,4.0,34,0.00,,,0.00,Wunderground v.1.15,2013-02-08 20:52:00,
2013-02-08 14:53:00,63.8,34.1,30.16,NNE,29,3.0,4.0,33,0.00,,,0.00,Wunderground v.1.15,2013-02-08 20:53:00,
2013-02-08 14:56:00,63.9,34.2,30.16,ENE,59,3.0,13.0,33,0.00,,,0.00,Wunderground v.1.15,2013-02-08 20:56:00,
2013-02-08 14:59:00,63.5,33.1,30.16,ENE,65,4.0,13.0,32,0.00,,,0.00,Wunderground v.1.15,2013-02-08 20:59:00,
2013-02-08 15:02:00,63.6,32.4,30.16,ESE,107,4.0,7.0,31,0.00,,,0.00,Wunderground v.1.15,2013-02-08 21:02:00,
2013-02-08 15:06:00,63.3,32.9,30.16,ESE,107,4.0,7.0,32,0.00,,,0.00,Wunderground v.1.15,2013-02-08 21:06:00,
2013-02-08 15:07:00,63.2,31.2,30.16,ENE,57,4.0,7.0,30,0.00,,,0.00,Wunderground v.1.15,2013-02-08 21:07:00,
2013-02-08 15:08:00,63.2,32.0,30.16,East,92,4.0,7.0,31,0.00,,,0.00,Wunderground v.1.15,2013-02-08 21:08:00,
2013-02-08 15:12:00,63.3,32.1,30.16,NE,52,4.0,6.0,31,0.00,,,0.00,Wunderground v.1.15,2013-02-08 21:12:00,
2013-02-08 15:16:00,63.3,32.1,30.16,NNE,24,3.0,6.0,31,0.00,,,0.00,Wunderground v.1.15,2013-02-08 21:16:00,
2013-02-08 15:17:00,63.2,32.0,30.16,ENE,74,3.0,6.0,31,0.00,,,0.00,Wunderground v.1.15,2013-02-08 21:17:00,
2013-02-08 15:18:00,63.3,32.9,30.16,NE,55,3.0,6.0,32,0.00,,,0.00,Wunderground v.1.15,2013-02-08 21:18:00,
2013-02-08 15:23:00,63.6,32.4,30.16,SE,140,3.0,7.0,31,0.00,,,0.00,Wunderground v.1.15,2013-02-08 21:23:00,
2013-02-08 15:24:00,63.8,30.9,30.16,ESE,119,3.0,7.0,29,0.00,,,0.00,Wunderground v.1.15,2013-02-08 21:24:00,
2013-02-08 15:26:00,64.0,31.9,30.16,SE,140,4.0,7.0,30,0.00,,,0.00,Wunderground v.1.15,2013-02-08 21:26:00,
2013-02-08 15:28:00,63.9,31.0,30.16,SSE,158,4.0,7.0,29,0.00,,,0.00,Wunderground v.1.15,2013-02-08 21:28:00,
2013-02-08 15:29:00,63.6,29.9,30.16,SSE,155,4.0,7.0,28,0.00,,,0.00,Wunderground v.1.15,2013-02-08 21:29:00,
2013-02-08 15:31:00,63.5,30.6,30.16,ESE,117,3.0,4.0,29,0.00,,,0.00,Wunderground v.1.15,2013-02-08 21:31:00,
2013-02-08 15:34:00,63.6,32.4,30.16,East,84,3.0,4.0,31,0.00,,,0.00,Wunderground v.1.15,2013-02-08 21:34:00,
2013-02-08 15:35:00,63.7,32.5,30.16,South,190,3.0,4.0,31,0.00,,,0.00,Wunderground v.1.15,2013-02-08 21:35:00,
2013-02-08 15:37:00,63.8,30.9,30.16,ENE,71,2.0,4.0,29,0.00,,,0.00,Wunderground v.1.15,2013-02-08 21:37:00,
2013-02-08 15:41:00,63.8,32.6,30.16,NNE,33,2.0,3.0,31,0.00,,,0.00,Wunderground v.1.15,2013-02-08 21:41:00,
2013-02-08 15:42:00,63.9,31.8,30.16,ENE,78,2.0,3.0,30,0.00,,,0.00,Wunderground v.1.15,2013-02-08 21:42:00,
2013-02-08 15:44:00,63.9,31.0,30.16,ENE,76,3.0,5.0,29,0.00,,,0.00,Wunderground v.1.15,2013-02-08 21:44:00,
2013-02-08 15:47:00,63.7,31.7,30.16,SE,132,3.0,5.0,30,0.00,,,0.00,Wunderground v.1.15,2013-02-08 21:47:00,
2013-02-08 15:48:00,63.6,30.7,30.16,East,101,3.0,5.0,29,0.00,,,0.00,Wunderground v.1.15,2013-02-08 21:48:00,
2013-02-08 15:50:00,63.6,31.6,30.16,ESE,121,2.0,2.0,30,0.00,,,0.00,Wunderground v.1.15,2013-02-08 21:50:00,
2013-02-08 15:51:00,63.6,31.6,30.16,ENE,67,2.0,3.0,30,0.00,,,0.00,Wunderground v.1.15,2013-02-08 21:51:00,
2013-02-08 15:54:00,63.6,31.6,30.16,ENE,63,3.0,3.0,30,0.00,,,0.00,Wunderground v.1.15,2013-02-08 21:54:00,
2013-02-08 15:55:00,63.5,30.6,30.16,ENE,63,2.0,3.0,29,0.00,,,0.00,Wunderground v.1.15,2013-02-08 21:55:00,
2013-02-08 15:58:00,63.5,31.5,30.15,ENE,63,2.0,9.0,30,0.00,,,0.00,Wunderground v.1.15,2013-02-08 21:58:00,
2013-02-08 16:00:00,63.5,32.3,30.16,East,86,2.0,2.0,31,0.00,,,0.00,Wunderground v.1.15,2013-02-08 22:00:00,
2013-02-08 16:02:00,63.6,31.6,30.15,SE,128,2.0,2.0,30,0.00,,,0.00,Wunderground v.1.15,2013-02-08 22:02:00,
2013-02-08 16:04:00,63.7,30.8,30.15,ESE,123,2.0,9.0,29,0.00,,,0.00,Wunderground v.1.15,2013-02-08 22:04:00,
2013-02-08 16:05:00,63.8,30.0,30.15,ENE,72,2.0,9.0,28,0.00,,,0.00,Wunderground v.1.15,2013-02-08 22:05:00,
2013-02-08 16:09:00,63.4,29.7,30.16,East,80,3.0,9.0,28,0.00,,,0.00,Wunderground v.1.15,2013-02-08 22:09:00,
2013-02-08 16:10:00,63.2,29.5,30.16,ESE,117,4.0,4.0,28,0.00,,,0.00,Wunderground v.1.15,2013-02-08 22:10:00,
2013-02-08 16:12:00,63.2,29.5,30.16,SE,133,4.0,5.0,28,0.00,,,0.00,Wunderground v.1.15,2013-02-08 22:12:00,
2013-02-08 16:13:00,63.2,29.5,30.16,ENE,65,4.0,5.0,28,0.00,,,0.00,Wunderground v.1.15,2013-02-08 22:13:00,
2013-02-08 16:14:00,63.2,30.4,30.16,East,90,3.0,5.0,29,0.00,,,0.00,Wunderground v.1.15,2013-02-08 22:14:00,
2013-02-08 16:18:00,63.1,30.3,30.16,ENE,64,3.0,5.0,29,0.00,,,0.00,Wunderground v.1.15,2013-02-08 22:18:00,
2013-02-08 16:20:00,62.9,28.4,30.16,SSE,153,3.0,5.0,27,0.00,,,0.00,Wunderground v.1.15,2013-02-08 22:20:00,
2013-02-08 16:23:00,62.9,29.3,30.16,SSE,164,3.0,5.0,28,0.00,,,0.00,Wunderground v.1.15,2013-02-08 22:23:00,
2013-02-08 16:24:00,62.9,29.3,30.16,SE,139,3.0,5.0,28,0.00,,,0.00,Wunderground v.1.15,2013-02-08 22:24:00,
2013-02-08 16:25:00,62.9,29.3,30.16,SE,140,3.0,5.0,28,0.00,,,0.00,Wunderground v.1.15,2013-02-08 22:25:00,
2013-02-08 16:26:00,62.9,29.3,30.16,SE,140,3.0,5.0,28,0.00,,,0.00,Wunderground v.1.15,2013-02-08 22:26:00,
2013-02-08 16:29:00,62.8,30.9,30.16,SE,140,2.0,5.0,30,0.00,,,0.00,Wunderground v.1.15,2013-02-08 22:29:00,
2013-02-08 16:31:00,62.7,30.8,30.16,East,92,2.0,3.0,30,0.00,,,0.00,Wunderground v.1.15,2013-02-08 22:31:00,
2013-02-08 16:33:00,62.7,31.6,30.16,NE,53,2.0,6.0,31,0.00,,,0.00,Wunderground v.1.15,2013-02-08 22:33:00,
2013-02-08 16:35:00,62.6,31.5,30.16,East,82,2.0,6.0,31,0.00,,,0.00,Wunderground v.1.15,2013-02-08 22:35:00,
2013-02-08 16:37:00,62.4,31.3,30.16,NE,52,3.0,6.0,31,0.00,,,0.00,Wunderground v.1.15,2013-02-08 22:37:00,
2013-02-08 16:40:00,62.2,30.4,30.16,SE,127,3.0,4.0,30,0.00,,,0.00,Wunderground v.1.15,2013-02-08 22:40:00,
2013-02-08 16:45:00,62.2,30.4,30.16,NNE,32,2.0,4.0,30,0.00,,,0.00,Wunderground v.1.15,2013-02-08 22:45:00,
2013-02-08 16:46:00,62.2,31.2,30.16,NNE,32,2.0,4.0,31,0.00,,,0.00,Wunderground v.1.15,2013-02-08 22:46:00,
2013-02-08 16:50:00,62.1,30.3,30.16,ENE,67,2.0,2.0,30,0.00,,,0.00,Wunderground v.1.15,2013-02-08 22:50:00,
2013-02-08 16:52:00,62.0,31.0,30.16,East,94,2.0,2.0,31,0.00,,,0.00,Wunderground v.1.15,2013-02-08 22:52:00,
2013-02-08 16:53:00,61.9,30.9,30.16,East,101,2.0,5.0,31,0.00,,,0.00,Wunderground v.1.15,2013-02-08 22:53:00,
2013-02-08 16:58:00,61.6,30.6,30.16,East,80,2.0,7.0,31,0.00,,,0.00,Wunderground v.1.15,2013-02-08 22:58:00,
2013-02-08 16:59:00,61.6,31.4,30.16,ENE,76,2.0,7.0,32,0.00,,,0.00,Wunderground v.1.15,2013-02-08 22:59:00,
2013-02-08 17:04:00,61.3,31.2,30.16,East,90,2.0,6.0,32,0.00,,,0.00,Wunderground v.1.15,2013-02-08 23:04:00,
2013-02-08 17:08:00,61.1,31.0,30.16,East,98,2.0,6.0,32,0.00,,,0.00,Wunderground v.1.15,2013-02-08 23:08:00,
2013-02-08 17:09:00,61.0,30.9,30.16,East,97,2.0,6.0,32,0.00,,,0.00,Wunderground v.1.15,2013-02-08 23:09:00,
2013-02-08 17:10:00,61.0,30.9,30.16,ESE,119,2.0,3.0,32,0.00,,,0.00,Wunderground v.1.15,2013-02-08 23:10:00,
2013-02-08 17:15:00,60.9,32.3,30.15,ESE,113,1.0,3.0,34,0.00,,,0.00,Wunderground v.1.15,2013-02-08 23:15:00,
2013-02-08 17:17:00,60.8,32.2,30.16,ESE,102,1.0,3.0,34,0.00,,,0.00,Wunderground v.1.15,2013-02-08 23:17:00,
2013-02-08 17:18:00,60.8,33.0,30.15,ENE,62,1.0,3.0,35,0.00,,,0.00,Wunderground v.1.15,2013-02-08 23:18:00,
2013-02-08 17:20:00,60.6,32.8,30.15,ENE,74,2.0,2.0,35,0.00,,,0.00,Wunderground v.1.15,2013-02-08 23:20:00,
2013-02-08 17:23:00,60.4,31.1,30.15,SE,130,2.0,4.0,33,0.00,,,0.00,Wunderground v.1.15,2013-02-08 23:23:00,
2013-02-08 17:24:00,60.3,31.0,30.15,East,82,2.0,6.0,33,0.00,,,0.00,Wunderground v.1.15,2013-02-08 23:24:00,
2013-02-08 17:27:00,60.2,31.0,30.15,East,94,2.0,6.0,33,0.00,,,0.00,Wunderground v.1.15,2013-02-08 23:27:00,
2013-02-08 17:29:00,60.1,31.6,30.15,East,79,2.0,6.0,34,0.00,,,0.00,Wunderground v.1.15,2013-02-08 23:29:00,
2013-02-08 17:31:00,60.0,31.5,30.15,East,95,2.0,2.0,34,0.00,,,0.00,Wunderground v.1.15,2013-02-08 23:31:00,
2013-02-08 17:33:00,59.9,32.2,30.15,East,94,1.0,2.0,35,0.00,,,0.00,Wunderground v.1.15,2013-02-08 23:33:00,
2013-02-08 17:39:00,59.6,32.6,30.16,East,95,1.0,2.0,36,0.00,,,0.00,Wunderground v.1.15,2013-02-08 23:39:00,
2013-02-08 17:40:00,59.5,33.2,30.16,East,95,1.0,1.0,37,0.00,,,0.00,Wunderground v.1.15,2013-02-08 23:40:00,
2013-02-08 17:41:00,59.4,32.4,30.16,East,88,1.0,3.0,36,0.00,,,0.00,Wunderground v.1.15,2013-02-08 23:41:00,
2013-02-08 17:42:00,59.3,32.3,30.16,ESE,105,1.0,3.0,36,0.00,,,0.00,Wunderground v.1.15,2013-02-08 23:42:00,
2013-02-08 17:45:00,59.2,32.9,30.16,East,92,1.0,3.0,37,0.00,,,0.00,Wunderground v.1.15,2013-02-08 23:45:00,
2013-02-08 17:49:00,58.9,32.7,30.16,ESE,113,1.0,5.0,37,0.00,,,0.00,Wunderground v.1.15,2013-02-08 23:49:00,
2013-02-08 17:51:00,58.7,33.1,30.16,ESE,114,1.0,1.0,38,0.00,,,0.00,Wunderground v.1.15,2013-02-08 23:51:00,
2013-02-08 17:54:00,58.6,33.0,30.16,East,96,1.0,3.0,38,0.00,,,0.00,Wunderground v.1.15,2013-02-08 23:54:00,
2013-02-08 17:56:00,58.4,32.9,30.15,ESE,105,1.0,5.0,38,0.00,,,0.00,Wunderground v.1.15,2013-02-08 23:56:00,
2013-02-08 17:57:00,58.4,32.9,30.15,ESE,106,1.0,5.0,38,0.00,,,0.00,Wunderground v.1.15,2013-02-08 23:57:00,
2013-02-08 18:01:00,58.1,32.6,30.16,ESE,106,1.0,1.0,38,0.00,,,0.00,Wunderground v.1.15,2013-02-09 00:01:00,
2013-02-08 18:03:00,58.0,32.5,30.16,ESE,122,1.0,2.0,38,0.00,,,0.00,Wunderground v.1.15,2013-02-09 00:03:00,
2013-02-08 18:04:00,58.0,32.5,30.16,ESE,122,1.0,2.0,38,0.00,,,0.00,Wunderground v.1.15,2013-02-09 00:04:00,
2013-02-08 18:06:00,57.8,33.0,30.16,ESE,122,1.0,2.0,39,0.00,,,0.00,Wunderground v.1.15,2013-02-09 00:06:00,
2013-02-08 18:08:00,57.8,33.0,30.16,ESE,122,1.0,2.0,39,0.00,,,0.00,Wunderground v.1.15,2013-02-09 00:08:00,
2013-02-08 18:10:00,57.6,33.4,30.16,ESE,122,1.0,1.0,40,0.00,,,0.00,Wunderground v.1.15,2013-02-09 00:10:00,
2013-02-08 18:13:00,57.5,33.3,30.16,East,88,1.0,2.0,40,0.00,,,0.00,Wunderground v.1.15,2013-02-09 00:13:00,
2013-02-08 18:15:00,57.3,33.2,30.16,East,88,0.0,2.0,40,0.00,,,0.00,Wunderground v.1.15,2013-02-09 00:15:00,
2013-02-08 18:17:00,57.2,33.7,30.16,East,88,1.0,2.0,41,0.00,,,0.00,Wunderground v.1.15,2013-02-09 00:17:00,
2013-02-08 18:21:00,56.9,33.4,30.16,East,88,1.0,1.0,41,0.00,,,0.00,Wunderground v.1.15,2013-02-09 00:21:00,
2013-02-08 18:22:00,56.8,33.3,30.16,East,88,1.0,1.0,41,0.00,,,0.00,Wunderground v.1.15,2013-02-09 00:22:00,
2013-02-08 18:23:00,56.7,33.8,30.16,East,88,0.0,1.0,42,0.00,,,0.00,Wunderground v.1.15,2013-02-09 00:23:00,
2013-02-08 18:26:00,56.5,33.7,30.16,East,88,0.0,1.0,42,0.00,,,0.00,Wunderground v.1.15,2013-02-09 00:26:00,
2013-02-08 18:27:00,56.4,33.6,30.16,East,88,0.0,1.0,42,0.00,,,0.00,Wunderground v.1.15,2013-02-09 00:27:00,
2013-02-08 18:29:00,56.2,33.4,30.16,East,88,0.0,1.0,42,0.00,,,0.00,Wunderground v.1.15,2013-02-09 00:29:00,
2013-02-08 18:30:00,56.0,33.8,30.16,East,88,0.0,0.0,43,0.00,,,0.00,Wunderground v.1.15,2013-02-09 00:30:00,
2013-02-08 18:31:00,55.9,33.7,30.16,East,88,0.0,0.0,43,0.00,,,0.00,Wunderground v.1.15,2013-02-09 00:31:00,
2013-02-08 18:36:00,55.5,33.9,30.15,East,88,1.0,2.0,44,0.00,,,0.00,Wunderground v.1.15,2013-02-09 00:36:00,
2013-02-08 18:37:00,55.4,33.8,30.15,East,88,1.0,2.0,44,0.00,,,0.00,Wunderground v.1.15,2013-02-09 00:37:00,
2013-02-08 18:38:00,55.3,33.7,30.15,East,88,1.0,2.0,44,0.00,,,0.00,Wunderground v.1.15,2013-02-09 00:38:00,
2013-02-08 18:41:00,55.0,34.6,30.15,East,88,2.0,3.0,46,0.00,,,0.00,Wunderground v.1.15,2013-02-09 00:41:00,
2013-02-08 18:45:00,54.5,34.7,30.15,ENE,67,2.0,5.0,47,0.00,,,0.00,Wunderground v.1.15,2013-02-09 00:45:00,
2013-02-08 18:47:00,54.2,34.9,30.15,ENE,63,2.0,5.0,48,0.00,,,0.00,Wunderground v.1.15,2013-02-09 00:47:00,
2013-02-08 18:50:00,54.0,34.7,30.15,ENE,65,3.0,3.0,48,0.00,,,0.00,Wunderground v.1.15,2013-02-09 00:50:00,
2013-02-08 18:51:00,53.9,34.6,30.15,ENE,71,3.0,3.0,48,0.00,,,0.00,Wunderground v.1.15,2013-02-09 00:51:00,
2013-02-08 18:52:00,53.9,35.2,30.15,ENE,65,2.0,3.0,49,0.00,,,0.00,Wunderground v.1.15,2013-02-09 00:52:00,
2013-02-08 18:55:00,53.7,35.0,30.15,ENE,62,2.0,3.0,49,0.00,,,0.00,Wunderground v.1.15,2013-02-09 00:55:00,
2013-02-08 18:57:00,53.5,34.8,30.15,ENE,62,2.0,5.0,49,0.00,,,0.00,Wunderground v.1.15,2013-02-09 00:57:00,
2013-02-08 18:58:00,53.5,34.8,30.15,ENE,62,2.0,5.0,49,0.00,,,0.00,Wunderground v.1.15,2013-02-09 00:58:00,
2013-02-08 19:01:00,53.4,34.7,30.15,ENE,62,2.0,2.0,49,0.00,,,0.00,Wunderground v.1.15,2013-02-09 01:01:00,
2013-02-08 19:03:00,53.3,34.6,30.15,ENE,62,2.0,2.0,49,0.00,,,0.00,Wunderground v.1.15,2013-02-09 01:03:00,
2013-02-08 19:06:00,53.2,35.0,30.14,ENE,62,2.0,3.0,50,0.00,,,0.00,Wunderground v.1.15,2013-02-09 01:06:00,
2013-02-08 19:07:00,53.1,34.9,30.14,ENE,63,2.0,3.0,50,0.00,,,0.00,Wunderground v.1.15,2013-02-09 01:07:00,
2013-02-08 19:09:00,53.0,34.8,30.14,ENE,63,2.0,3.0,50,0.00,,,0.00,Wunderground v.1.15,2013-02-09 01:09:00,
2013-02-08 19:10:00,52.9,34.8,30.14,ENE,63,1.0,2.0,50,0.00,,,0.00,Wunderground v.1.15,2013-02-09 01:10:00,
2013-02-08 19:12:00,52.8,34.7,30.14,ENE,58,1.0,2.0,50,0.00,,,0.00,Wunderground v.1.15,2013-02-09 01:12:00,
2013-02-08 19:13:00,52.8,34.7,30.14,ENE,58,1.0,2.0,50,0.00,,,0.00,Wunderground v.1.15,2013-02-09 01:13:00,
2013-02-08 19:15:00,52.6,34.5,30.14,ENE,65,1.0,2.0,50,0.00,,,0.00,Wunderground v.1.15,2013-02-09 01:15:00,
2013-02-08 19:20:00,52.4,34.3,30.14,ENE,67,2.0,2.0,50,0.00,,,0.00,Wunderground v.1.15,2013-02-09 01:20:00,
2013-02-08 19:21:00,52.4,34.3,30.14,ENE,67,2.0,2.0,50,0.00,,,0.00,Wunderground v.1.15,2013-02-09 01:21:00,
2013-02-08 19:23:00,52.3,34.7,30.14,ENE,66,2.0,2.0,51,0.00,,,0.00,Wunderground v.1.15,2013-02-09 01:23:00,
2013-02-08 19:25:00,52.3,34.2,30.14,ENE,61,2.0,2.0,50,0.00,,,0.00,Wunderground v.1.15,2013-02-09 01:25:00,
2013-02-08 19:28:00,52.2,34.6,30.15,ENE,66,2.0,2.0,51,0.00,,,0.00,Wunderground v.1.15,2013-02-09 01:28:00,
2013-02-08 19:31:00,52.1,34.5,30.14,ENE,62,2.0,2.0,51,0.00,,,0.00,Wunderground v.1.15,2013-02-09 01:31:00,
2013-02-08 19:33:00,52.1,34.5,30.15,ENE,65,2.0,2.0,51,0.00,,,0.00,Wunderground v.1.15,2013-02-09 01:33:00,
2013-02-08 19:35:00,52.0,34.4,30.15,ENE,66,2.0,2.0,51,0.00,,,0.00,Wunderground v.1.15,2013-02-09 01:35:00,
2013-02-08 19:36:00,51.9,34.8,30.15,ENE,67,2.0,2.0,52,0.00,,,0.00,Wunderground v.1.15,2013-02-09 01:36:00,
2013-02-08 19:41:00,51.8,34.7,30.15,ENE,78,2.0,2.0,52,0.00,,,0.00,Wunderground v.1.15,2013-02-09 01:41:00,
2013-02-08 19:42:00,51.7,34.6,30.15,ENE,62,2.0,2.0,52,0.00,,,0.00,Wunderground v.1.15,2013-02-09 01:42:00,
2013-02-08 19:44:00,51.7,34.6,30.15,NE,51,2.0,2.0,52,0.00,,,0.00,Wunderground v.1.15,2013-02-09 01:44:00,
2013-02-08 19:49:00,51.7,35.1,30.15,East,80,2.0,3.0,53,0.00,,,0.00,Wunderground v.1.15,2013-02-09 01:49:00,
2013-02-08 19:50:00,51.6,35.0,30.15,ENE,73,2.0,3.0,53,0.00,,,0.00,Wunderground v.1.15,2013-02-09 01:50:00,
2013-02-08 19:51:00,51.6,35.0,30.15,ENE,59,2.0,4.0,53,0.00,,,0.00,Wunderground v.1.15,2013-02-09 01:51:00,
2013-02-08 19:55:00,51.5,34.9,30.15,East,85,2.0,4.0,53,0.00,,,0.00,Wunderground v.1.15,2013-02-09 01:55:00,
2013-02-08 19:56:00,51.5,34.9,30.15,ENE,72,2.0,4.0,53,0.00,,,0.00,Wunderground v.1.15,2013-02-09 01:56:00,
2013-02-08 19:57:00,51.4,34.8,30.15,ENE,69,2.0,4.0,53,0.00,,,0.00,Wunderground v.1.15,2013-02-09 01:57:00,
2013-02-08 20:01:00,51.3,35.2,30.15,ENE,57,2.0,2.0,54,0.00,,,0.00,Wunderground v.1.15,2013-02-09 02:01:00,
2013-02-08 20:04:00,51.1,35.0,30.15,ENE,58,2.0,2.0,54,0.00,,,0.00,Wunderground v.1.15,2013-02-09 02:04:00,
2013-02-08 20:05:00,51.1,35.0,30.15,ENE,58,2.0,2.0,54,0.00,,,0.00,Wunderground v.1.15,2013-02-09 02:05:00,
2013-02-08 20:06:00,51.0,34.9,30.15,ENE,58,2.0,2.0,54,0.00,,,0.00,Wunderground v.1.15,2013-02-09 02:06:00,
2013-02-08 20:10:00,50.8,35.2,30.16,ENE,58,2.0,2.0,55,0.00,,,0.00,Wunderground v.1.15,2013-02-09 02:10:00,
2013-02-08 20:11:00,50.8,34.7,30.16,ENE,59,2.0,2.0,54,0.00,,,0.00,Wunderground v.1.15,2013-02-09 02:11:00,
2013-02-08 20:13:00,50.7,35.1,30.16,ENE,59,2.0,2.0,55,0.00,,,0.00,Wunderground v.1.15,2013-02-09 02:13:00,
2013-02-08 20:15:00,50.6,35.0,30.16,ENE,59,2.0,2.0,55,0.00,,,0.00,Wunderground v.1.15,2013-02-09 02:15:00,
2013-02-08 20:16:00,50.6,35.0,30.16,ENE,59,2.0,2.0,55,0.00,,,0.00,Wunderground v.1.15,2013-02-09 02:16:00,
2013-02-08 20:20:00,50.5,34.9,30.16,ENE,59,2.0,2.0,55,0.00,,,0.00,Wunderground v.1.15,2013-02-09 02:20:00,
2013-02-08 20:21:00,50.5,34.9,30.15,ENE,59,1.0,2.0,55,0.00,,,0.00,Wunderground v.1.15,2013-02-09 02:21:00,
2013-02-08 20:27:00,50.3,34.7,30.16,ENE,59,1.0,2.0,55,0.00,,,0.00,Wunderground v.1.15,2013-02-09 02:27:00,
2013-02-08 20:29:00,50.1,35.0,30.16,ENE,59,2.0,2.0,56,0.00,,,0.00,Wunderground v.1.15,2013-02-09 02:29:00,
2013-02-08 20:30:00,50.1,35.0,30.16,ENE,59,2.0,2.0,56,0.00,,,0.00,Wunderground v.1.15,2013-02-09 02:30:00,
2013-02-08 20:34:00,49.9,34.8,30.16,ENE,59,2.0,2.0,56,0.00,,,0.00,Wunderground v.1.15,2013-02-09 02:34:00,
2013-02-08 20:37:00,49.8,35.2,30.16,ENE,61,2.0,2.0,57,0.00,,,0.00,Wunderground v.1.15,2013-02-09 02:37:00,
2013-02-08 20:38:00,49.7,35.1,30.16,ENE,61,2.0,2.0,57,0.00,,,0.00,Wunderground v.1.15,2013-02-09 02:38:00,
2013-02-08 20:40:00,49.7,35.1,30.16,ENE,61,2.0,2.0,57,0.00,,,0.00,Wunderground v.1.15,2013-02-09 02:40:00,
2013-02-08 20:43:00,49.6,35.0,30.16,ENE,61,2.0,2.0,57,0.00,,,0.00,Wunderground v.1.15,2013-02-09 02:43:00,
2013-02-08 20:45:00,49.5,34.9,30.16,ENE,70,2.0,2.0,57,0.00,,,0.00,Wunderground v.1.15,2013-02-09 02:45:00,
2013-02-08 20:47:00,49.5,34.9,30.16,ENE,67,2.0,2.0,57,0.00,,,0.00,Wunderground v.1.15,2013-02-09 02:47:00,
2013-02-08 20:48:00,49.5,35.3,30.16,ENE,67,2.0,2.0,58,0.00,,,0.00,Wunderground v.1.15,2013-02-09 02:48:00,
2013-02-08 20:50:00,49.4,34.8,30.16,ENE,67,2.0,2.0,57,0.00,,,0.00,Wunderground v.1.15,2013-02-09 02:50:00,
2013-02-08 20:54:00,49.3,35.1,30.16,ENE,76,2.0,2.0,58,0.00,,,0.00,Wunderground v.1.15,2013-02-09 02:54:00,
2013-02-08 20:58:00,49.1,35.4,30.16,ENE,71,2.0,4.0,59,0.00,,,0.00,Wunderground v.1.15,2013-02-09 02:58:00,
2013-02-08 20:59:00,49.1,35.4,30.16,ENE,69,2.0,4.0,59,0.00,,,0.00,Wunderground v.1.15,2013-02-09 02:59:00,
2013-02-08 21:01:00,49.0,35.3,30.15,ENE,77,2.0,3.0,59,0.00,,,0.00,Wunderground v.1.15,2013-02-09 03:01:00,
2013-02-08 21:04:00,48.9,35.6,30.15,ENE,67,2.0,3.0,60,0.00,,,0.00,Wunderground v.1.15,2013-02-09 03:04:00,
2013-02-08 21:06:00,48.8,35.1,30.16,ENE,67,2.0,3.0,59,0.00,,,0.00,Wunderground v.1.15,2013-02-09 03:06:00,
2013-02-08 21:07:00,48.8,35.1,30.16,ENE,76,2.0,3.0,59,0.00,,,0.00,Wunderground v.1.15,2013-02-09 03:07:00,
2013-02-08 21:13:00,48.7,35.4,30.15,ENE,71,2.0,2.0,60,0.00,,,0.00,Wunderground v.1.15,2013-02-09 03:13:00,
2013-02-08 21:15:00,48.6,35.3,30.15,NE,44,2.0,2.0,60,0.00,,,0.00,Wunderground v.1.15,2013-02-09 03:15:00,
2013-02-08 21:20:00,48.4,35.6,30.15,ENE,67,2.0,3.0,61,0.00,,,0.00,Wunderground v.1.15,2013-02-09 03:20:00,
2013-02-08 21:21:00,48.4,35.6,30.15,ENE,63,2.0,3.0,61,0.00,,,0.00,Wunderground v.1.15,2013-02-09 03:21:00,
2013-02-08 21:22:00,48.3,35.5,30.16,ENE,72,2.0,3.0,61,0.00,,,0.00,Wunderground v.1.15,2013-02-09 03:22:00,
2013-02-08 21:25:00,48.2,35.8,30.15,ENE,66,2.0,4.0,62,0.00,,,0.00,Wunderground v.1.15,2013-02-09 03:25:00,
2013-02-08 21:27:00,48.2,35.8,30.15,ENE,74,2.0,4.0,62,0.00,,,0.00,Wunderground v.1.15,2013-02-09 03:27:00,
2013-02-08 21:28:00,48.2,35.8,30.15,ENE,59,2.0,4.0,62,0.00,,,0.00,Wunderground v.1.15,2013-02-09 03:28:00,
2013-02-08 21:33:00,48.0,35.2,30.15,ENE,65,3.0,4.0,61,0.00,,,0.00,Wunderground v.1.15,2013-02-09 03:33:00,
2013-02-08 21:34:00,48.1,35.3,30.15,ENE,70,3.0,4.0,61,0.00,,,0.00,Wunderground v.1.15,2013-02-09 03:34:00,
2013-02-08 21:36:00,48.1,35.3,30.15,ENE,66,3.0,4.0,61,0.00,,,0.00,Wunderground v.1.15,2013-02-09 03:36:00,
2013-02-08 21:38:00,48.2,35.4,30.15,East,84,3.0,5.0,61,0.00,,,0.00,Wunderground v.1.15,2013-02-09 03:38:00,
2013-02-08 21:39:00,48.2,35.4,30.15,ENE,68,3.0,5.0,61,0.00,,,0.00,Wunderground v.1.15,2013-02-09 03:39:00,
2013-02-08 21:42:00,48.3,35.5,30.15,ENE,78,3.0,4.0,61,0.00,,,0.00,Wunderground v.1.15,2013-02-09 03:42:00,
2013-02-08 21:43:00,48.4,35.6,30.15,ENE,73,3.0,4.0,61,0.00,,,0.00,Wunderground v.1.15,2013-02-09 03:43:00,
2013-02-08 21:44:00,48.4,35.6,30.15,East,81,3.0,4.0,61,0.00,,,0.00,Wunderground v.1.15,2013-02-09 03:44:00,
2013-02-08 21:47:00,48.5,35.7,30.15,NE,55,3.0,4.0,61,0.00,,,0.00,Wunderground v.1.15,2013-02-09 03:47:00,
2013-02-08 21:48:00,48.5,35.7,30.15,ENE,74,3.0,4.0,61,0.00,,,0.00,Wunderground v.1.15,2013-02-09 03:48:00,
2013-02-08 21:49:00,48.5,35.7,30.15,ENE,69,3.0,4.0,61,0.00,,,0.00,Wunderground v.1.15,2013-02-09 03:49:00,
2013-02-08 21:50:00,48.5,35.7,30.15,East,85,3.0,3.0,61,0.00,,,0.00,Wunderground v.1.15,2013-02-09 03:50:00,
2013-02-08 21:55:00,48.5,35.7,30.15,ENE,67,2.0,4.0,61,0.00,,,0.00,Wunderground v.1.15,2013-02-09 03:55:00,
2013-02-08 21:57:00,48.5,35.7,30.15,ENE,72,2.0,4.0,61,0.00,,,0.00,Wunderground v.1.15,2013-02-09 03:57:00,
2013-02-08 21:58:00,48.5,35.7,30.15,ENE,73,2.0,4.0,61,0.00,,,0.00,Wunderground v.1.15,2013-02-09 03:58:00,
2013-02-08 22:02:00,48.6,35.7,30.15,East,84,3.0,4.0,61,0.00,,,0.00,Wunderground v.1.15,2013-02-09 04:02:00,
2013-02-08 22:03:00,48.6,35.7,30.15,East,80,3.0,4.0,61,0.00,,,0.00,Wunderground v.1.15,2013-02-09 04:03:00,
2013-02-08 22:04:00,48.6,35.7,30.15,East,90,3.0,4.0,61,0.00,,,0.00,Wunderground v.1.15,2013-02-09 04:04:00,
2013-02-08 22:07:00,48.6,35.7,30.15,ENE,68,3.0,4.0,61,0.00,,,0.00,Wunderground v.1.15,2013-02-09 04:07:00,
2013-02-08 22:09:00,48.7,35.4,30.16,East,91,3.0,5.0,60,0.00,,,0.00,Wunderground v.1.15,2013-02-09 04:09:00,
2013-02-08 22:11:00,48.7,35.4,30.16,East,90,3.0,5.0,60,0.00,,,0.00,Wunderground v.1.15,2013-02-09 04:11:00,
2013-02-08 22:12:00,48.7,35.4,30.16,ENE,72,3.0,5.0,60,0.00,,,0.00,Wunderground v.1.15,2013-02-09 04:12:00,
2013-02-08 22:17:00,48.8,35.5,30.16,ENE,69,2.0,5.0,60,0.00,,,0.00,Wunderground v.1.15,2013-02-09 04:17:00,
2013-02-08 22:18:00,48.8,35.5,30.16,ENE,74,2.0,5.0,60,0.00,,,0.00,Wunderground v.1.15,2013-02-09 04:18:00,
2013-02-08 22:19:00,48.8,35.5,30.16,ENE,63,2.0,5.0,60,0.00,,,0.00,Wunderground v.1.15,2013-02-09 04:19:00,
2013-02-08 22:23:00,48.9,35.6,30.16,ENE,78,2.0,3.0,60,0.00,,,0.00,Wunderground v.1.15,2013-02-09 04:23:00,
2013-02-08 22:24:00,48.9,35.6,30.16,ENE,71,2.0,3.0,60,0.00,,,0.00,Wunderground v.1.15,2013-02-09 04:24:00,
2013-02-08 22:26:00,49.0,35.7,30.16,ENE,67,2.0,3.0,60,0.00,,,0.00,Wunderground v.1.15,2013-02-09 04:26:00,
2013-02-08 22:29:00,49.0,35.7,30.16,East,86,1.0,3.0,60,0.00,,,0.00,Wunderground v.1.15,2013-02-09 04:29:00,
2013-02-08 22:31:00,49.0,35.3,30.16,East,90,1.0,2.0,59,0.00,,,0.00,Wunderground v.1.15,2013-02-09 04:31:00,
2013-02-08 22:35:00,49.1,35.8,30.16,ESE,105,1.0,4.0,60,0.00,,,0.00,Wunderground v.1.15,2013-02-09 04:35:00,
2013-02-08 22:40:00,49.2,35.9,30.16,East,81,1.0,1.0,60,0.00,,,0.00,Wunderground v.1.15,2013-02-09 04:40:00,
2013-02-08 22:41:00,49.2,35.5,30.16,ENE,74,1.0,2.0,59,0.00,,,0.00,Wunderground v.1.15,2013-02-09 04:41:00,
2013-02-08 22:43:00,49.2,35.9,30.17,East,86,2.0,2.0,60,0.00,,,0.00,Wunderground v.1.15,2013-02-09 04:43:00,
2013-02-08 22:44:00,49.2,35.5,30.16,ESE,114,1.0,2.0,59,0.00,,,0.00,Wunderground v.1.15,2013-02-09 04:44:00,
2013-02-08 22:45:00,49.2,35.5,30.16,ENE,76,1.0,2.0,59,0.00,,,0.00,Wunderground v.1.15,2013-02-09 04:45:00,
2013-02-08 22:49:00,49.2,35.9,30.16,ENE,64,2.0,2.0,60,0.00,,,0.00,Wunderground v.1.15,2013-02-09 04:49:00,
2013-02-08 22:50:00,49.2,35.5,30.16,ENE,64,2.0,2.0,59,0.00,,,0.00,Wunderground v.1.15,2013-02-09 04:50:00,
2013-02-08 22:53:00,49.2,35.9,30.16,ENE,62,2.0,3.0,60,0.00,,,0.00,Wunderground v.1.15,2013-02-09 04:53:00,
2013-02-08 22:56:00,49.1,35.8,30.15,ENE,67,2.0,4.0,60,0.00,,,0.00,Wunderground v.1.15,2013-02-09 04:56:00,
2013-02-08 22:58:00,49.1,35.8,30.15,ENE,68,2.0,4.0,60,0.00,,,0.00,Wunderground v.1.15,2013-02-09 04:58:00,
2013-02-08 23:00:00,49.1,35.8,30.15,ENE,71,2.0,2.0,60,0.00,,,0.00,Wunderground v.1.15,2013-02-09 05:00:00,
2013-02-08 23:01:00,49.1,35.8,30.15,ENE,76,2.0,5.0,60,0.00,,,0.00,Wunderground v.1.15,2013-02-09 05:01:00,
2013-02-08 23:03:00,49.1,35.8,30.15,ESE,111,2.0,5.0,60,0.00,,,0.00,Wunderground v.1.15,2013-02-09 05:03:00,
2013-02-08 23:06:00,49.1,35.8,30.14,ENE,71,2.0,5.0,60,0.00,,,0.00,Wunderground v.1.15,2013-02-09 05:06:00,
2013-02-08 23:09:00,49.1,35.8,30.14,ENE,74,2.0,5.0,60,0.00,,,0.00,Wunderground v.1.15,2013-02-09 05:09:00,
2013-02-08 23:12:00,49.1,36.2,30.14,East,89,3.0,5.0,61,0.00,,,0.00,Wunderground v.1.15,2013-02-09 05:12:00,
2013-02-08 23:13:00,49.1,36.0,30.14,East,96,2.0,6.0,61,0.00,,,0.00,weatherlink.com 1.10,2013-02-09 05:13:00,
2013-02-08 23:14:00,49.0,36.1,30.14,East,79,3.0,5.0,61,0.00,,,0.00,Wunderground v.1.15,2013-02-09 05:14:00,
2013-02-08 23:15:00,49.1,36.2,30.14,East,95,3.0,5.0,61,0.00,,,0.00,Wunderground v.1.15,2013-02-09 05:15:00,
2013-02-08 23:17:00,49.1,36.2,30.14,East,95,3.0,6.0,61,0.00,,,0.00,Wunderground v.1.15,2013-02-09 05:17:00,
2013-02-08 23:18:00,49.1,36.2,30.14,East,79,3.0,6.0,61,0.00,,,0.00,Wunderground v.1.15,2013-02-09 05:18:00,
2013-02-08 23:20:00,49.1,36.2,30.14,ENE,78,3.0,3.0,61,0.00,,,0.00,Wunderground v.1.15,2013-02-09 05:20:00,
2013-02-08 23:23:00,49.1,36.6,30.14,East,101,3.0,9.0,62,0.00,,,0.00,Wunderground v.1.15,2013-02-09 05:23:00,
2013-02-08 23:24:00,49.1,36.6,30.14,East,86,3.0,9.0,62,0.00,,,0.00,Wunderground v.1.15,2013-02-09 05:24:00,
2013-02-08 23:28:00,49.1,37.0,30.14,ENE,72,3.0,9.0,63,0.00,,,0.00,Wunderground v.1.15,2013-02-09 05:28:00,
2013-02-08 23:29:00,49.2,37.1,30.14,SSE,152,3.0,4.0,63,0.00,,,0.00,Wunderground v.1.15,2013-02-09 05:29:00,
2013-02-08 23:32:00,49.2,37.1,30.14,ENE,67,3.0,5.0,63,0.00,,,0.00,Wunderground v.1.15,2013-02-09 05:32:00,
2013-02-08 23:36:00,49.2,37.1,30.15,East,86,3.0,5.0,63,0.00,,,0.00,Wunderground v.1.15,2013-02-09 05:36:00,
2013-02-08 23:37:00,49.2,37.1,30.15,SE,130,3.0,5.0,63,0.00,,,0.00,Wunderground v.1.15,2013-02-09 05:37:00,
2013-02-08 23:40:00,49.2,37.1,30.15,East,98,3.0,3.0,63,0.00,,,0.00,Wunderground v.1.15,2013-02-09 05:40:00,
2013-02-08 23:41:00,49.2,37.1,30.15,East,99,3.0,3.0,63,0.00,,,0.00,Wunderground v.1.15,2013-02-09 05:41:00,
2013-02-08 23:43:00,49.2,37.5,30.15,East,80,3.0,5.0,64,0.00,,,0.00,Wunderground v.1.15,2013-02-09 05:43:00,
2013-02-08 23:44:00,49.2,37.0,30.15,East,92,2.0,7.0,64,0.00,,,0.00,weatherlink.com 1.10,2013-02-09 05:44:00,
2013-02-08 23:48:00,49.2,37.5,30.15,East,80,3.0,5.0,64,0.00,,,0.00,Wunderground v.1.15,2013-02-09 05:48:00,
2013-02-08 23:50:00,49.3,37.6,30.15,ESE,123,3.0,3.0,64,0.00,,,0.00,Wunderground v.1.15,2013-02-09 05:50:00,
2013-02-08 23:51:00,49.3,37.6,30.15,ESE,107,3.0,3.0,64,0.00,,,0.00,Wunderground v.1.15,2013-02-09 05:51:00,
2013-02-08 23:56:00,49.3,37.2,30.15,East,94,3.0,6.0,63,0.00,,,0.00,Wunderground v.1.15,2013-02-09 05:56:00,
2013-02-08 23:57:00,49.3,37.2,30.15,East,85,3.0,6.0,63,0.00,,,0.00,Wunderground v.1.15,2013-02-09 05:57:00,
2013-02-08 23:58:00,49.3,37.0,30.15,SE,134,4.0,10.0,63,0.00,,,0.00,weatherlink.com 1.10,2013-02-09 05:58:00,